Home > Weather > Tórshavn > Past weeks

Flag for Faroe Islands Weather for the Past 2 Weeks in Tórshavn, Faroe Islands

Now
37 °F

Passing clouds.


Feels Like: 28 °F
Forecast: N/A
Wind: 15 mph from East

Location: Soervaag / Vagar

Current Time: Feb 12, 2016 at 9:40:09 PM

Latest Report: Feb 12, 2016 at 8:50 PM


Visibility: N/A

Pressure: 29.74 "Hg

Humidity: 56%

Dew point: 23 °F

Location of TórshavnLocation

Historic Weather in Tórshavn — Graph

°F

Tórshavn Temperature Yesterday

Maximum temperature yesterday: 41 °F (at 1:20 PM)
Minimum temperature yesterday: 36 °F (at 2:50 AM)
Average temperature yesterday: 38 °F

High & Low Weather Summary for the Past Weeks

 TemperatureHumidityPressure
High45 °F (Feb 4, 11:20 PM)100% (Jan 28, 10:20 PM)29.98 "Hg (Jan 28, 10:20 PM)
Low23 °F (Jan 31, 8:20 PM)48% (Feb 10, 8:50 PM)28.15 "Hg (Jan 29, 8:50 AM)
Average36 °F78%29.17 "Hg
* Reported Jan 28 8:20 PM — Feb 12 8:20 PM, Tórshavn, Weather by CustomWeather, © 2016

Note: Actual official high and low records may vary slightly from our data, if they occured in-between our weather recording intervals... More about our weather records

Advertising

Tórshavn Weather History for the Previous 24 Hours

 ConditionsComfort  
Time TempWeatherWind HumidityBarometerVisibility
8:20 PM
Fri, Feb 12
37 °FPassing clouds.12 mph56%29.74 "HgN/A
7:50 PM37 °FPassing clouds.18 mph65%29.74 "HgN/A
7:20 PM39 °FPassing clouds.20 mph56%29.74 "HgN/A
6:50 PM37 °FPassing clouds.18 mph65%29.74 "HgN/A
6:20 PM37 °FSprinkles. Passing clouds.15 mph70%29.74 "HgN/A
5:50 PM37 °FPassing clouds.17 mph60%29.74 "HgN/A
5:20 PM37 °FPassing clouds.14 mph60%29.74 "HgN/A
4:50 PM37 °FScattered clouds.18 mph60%29.74 "HgN/A
4:20 PM39 °FScattered clouds.21 mph48%29.74 "HgN/A
3:50 PM39 °FPartly sunny.20 mph56%29.74 "HgN/A
3:20 PM39 °FPartly sunny.20 mph61%29.74 "HgN/A
2:50 PM39 °FScattered clouds.16 mph52%29.74 "HgN/A
2:20 PM39 °FPartly sunny.23 mph56%29.74 "HgN/A
1:50 PM39 °FChilly.20 mph56%29.74 "HgN/A
1:20 PM39 °FChilly.21 mph56%29.74 "HgN/A
12:50 PM39 °FScattered clouds.22 mph56%29.77 "HgN/A
12:20 PM41 °FPartly sunny.21 mph61%29.74 "HgN/A
11:50 AM39 °FPassing clouds.18 mph61%29.77 "HgN/A
11:20 AM39 °FBroken clouds.17 mph65%29.77 "HgN/A
10:50 AM39 °FChilly.14 mph61%29.77 "HgN/A
10:20 AM39 °FScattered clouds.18 mph70%29.77 "HgN/A
9:50 AM37 °FScattered clouds.17 mph75%29.77 "HgN/A
9:20 AM37 °FScattered clouds.13 mph75%29.77 "HgN/A
8:50 AM37 °FScattered clouds.15 mph75%29.77 "HgN/A
8:20 AM37 °FChilly.16 mph70%29.77 "HgN/A
7:50 AM37 °FPartly cloudy.14 mph75%29.77 "HgN/A
7:20 AM36 °FSprinkles. Passing clouds.20 mph81%29.77 "Hg5 mi
6:50 AM37 °FPassing clouds.17 mph70%29.74 "HgN/A
6:20 AM37 °FPassing clouds.16 mph60%29.77 "HgN/A
5:50 AM37 °FPassing clouds.16 mph56%29.74 "HgN/A
5:20 AM37 °FPassing clouds.16 mph56%29.77 "HgN/A
4:50 AM37 °FPassing clouds.16 mph56%29.77 "HgN/A
4:20 AM37 °FPassing clouds.15 mph60%29.77 "HgN/A
3:50 AM37 °FPassing clouds.20 mph60%29.77 "HgN/A
3:20 AM37 °FPassing clouds.18 mph60%29.77 "HgN/A
2:50 AM37 °FPassing clouds.18 mph60%29.77 "HgN/A
2:20 AM36 °FPassing clouds.16 mph65%29.77 "HgN/A
1:50 AM37 °FPassing clouds.18 mph56%29.77 "HgN/A
1:20 AM37 °FPassing clouds.17 mph60%29.77 "HgN/A
12:50 AM37 °FPassing clouds.20 mph60%29.77 "HgN/A
12:20 AM37 °FPassing clouds.18 mph60%29.77 "HgN/A
11:50 PM
Thu, Feb 11
37 °FPassing clouds.21 mph65%29.77 "HgN/A
11:20 PM37 °FPassing clouds.17 mph60%29.77 "HgN/A
10:50 PM37 °FPassing clouds.20 mph60%29.77 "HgN/A
9:50 PM37 °FPassing clouds.22 mph56%29.77 "HgN/A
9:20 PM37 °FPassing clouds.22 mph60%29.77 "HgN/A
Weather by CustomWeather, © 2016

See weather overviewHow to use our weather pages